TimeCDT,TemperatureF,Dew PointF,Humidity,Sea Level PressureIn,VisibilityMPH,Wind Direction,Wind SpeedMPH,Gust SpeedMPH,PrecipitationIn,Events,Conditions,WindDirDegrees,DateUTC
1:52 AM,66.0,48.9,54,29.98,10.0,SSW,9.2,-,N/A,,Clear,200,2012-10-23 06:52:00
2:52 AM,64.0,48.9,58,29.98,10.0,SSW,9.2,-,N/A,,Partly Cloudy,200,2012-10-23 07:52:00
3:52 AM,66.0,48.9,54,29.98,10.0,SSW,12.7,-,N/A,,Clear,210,2012-10-23 08:52:00
5:52 AM,64.9,50.0,58,29.99,10.0,South,9.2,-,N/A,,Scattered Clouds,190,2012-10-23 10:52:00
6:52 AM,64.9,50.0,58,29.99,10.0,South,12.7,-,N/A,,Mostly Cloudy,190,2012-10-23 11:52:00
7:52 AM,64.0,51.1,63,30.01,10.0,SSW,12.7,-,N/A,,Mostly Cloudy,200,2012-10-23 12:52:00
8:52 AM,66.9,52.0,59,30.02,10.0,SSW,13.8,-,N/A,,Clear,200,2012-10-23 13:52:00
10:52 AM,73.0,54.0,51,30.02,10.0,South,9.2,-,N/A,,Mostly Cloudy,190,2012-10-23 15:52:00
11:52 AM,72.0,55.9,57,30.01,10.0,SSW,11.5,-,N/A,,Scattered Clouds,200,2012-10-23 16:52:00
12:52 PM,75.0,59.0,57,29.99,10.0,South,16.1,-,0.00,,Mostly Cloudy,190,2012-10-23 17:52:00
1:52 PM,75.9,59.0,56,29.96,10.0,SSW,15.0,26.5,N/A,,Mostly Cloudy,200,2012-10-23 18:52:00
2:52 PM,75.9,60.1,58,29.94,10.0,South,12.7,-,N/A,,Partly Cloudy,190,2012-10-23 19:52:00
3:52 PM,79.0,57.9,48,29.93,10.0,South,19.6,26.5,N/A,,Partly Cloudy,190,2012-10-23 20:52:00
4:52 PM,78.1,57.0,48,29.92,10.0,South,12.7,-,N/A,,Clear,190,2012-10-23 21:52:00
5:52 PM,75.0,57.0,53,29.93,10.0,South,18.4,-,N/A,,Clear,180,2012-10-23 22:52:00
6:52 PM,73.0,57.9,59,29.94,10.0,South,11.5,-,N/A,,Clear,190,2012-10-23 23:52:00
7:52 PM,71.1,57.0,61,29.95,10.0,South,9.2,-,N/A,,Clear,180,2012-10-24 00:52:00
8:52 PM,68.0,57.0,68,29.96,10.0,South,9.2,-,N/A,,Clear,180,2012-10-24 01:52:00
9:52 PM,64.9,55.9,73,29.98,10.0,South,6.9,-,N/A,,Clear,180,2012-10-24 02:52:00
10:52 PM,66.0,55.0,68,29.99,10.0,South,5.8,-,N/A,,Clear,180,2012-10-24 03:52:00
11:52 PM,66.0,54.0,65,29.99,10.0,South,10.4,-,N/A,,Clear,190,2012-10-24 04:52:00